STARLINK-35235

Last updated on Mon Oct 20 2025 00:02:06 GMT+0000 (Coordinated Universal Time)

1 65682U 25212G 25292.23237450 .00072701 00000+0 13018-2 0 9996 2 65682 53.1584 282.8813 0001636 85.2771 274.8425 15.49335849 5539
UTC large
Height (km)
Speed (km/s)
/
Latitude / Longitude
Inclination (degrees)
Orbital Period (minutes)
Azimuth
Elevation
Range (km)
Doppler Factor

Next 0 passes for location: London (51.5072 / 0.1276)

Sorry there are no passes over London.